Home > Weather > Santander > Past weeks

Flag for Spain Past Weather in Santander, Spain — Yesterday and Last 2 Weeks

Now
66 °F

Low clouds.


Feels Like: 66 °F
Forecast: 64 / 70 °F
Wind: 2 mph from North

Location: Santander / Parayas

Current Time: Jul 30, 2016 at 7:31:59 AM

Latest Report: Jul 30, 2016 at 7:00 AM


Visibility: 4 mi

Pressure: 29.98 "Hg

Humidity: 100%

Dew Point: 66 °F

Location of SantanderLocation

Past Weather in Santander — Graph

°F

Santander Temperature Yesterday

Maximum temperature yesterday: 75 °F (at 2:30 PM)
Minimum temperature yesterday: 61 °F (at 4:00 AM)
Average temperature yesterday: 68 °F

High & Low Weather Summary for the Past Weeks

 TemperatureHumidityPressure
High88 °F (Jul 18, 5:30 PM)100% (Jul 23, 3:00 AM)30.33 "Hg (Jul 23, 3:00 AM)
Low55 °F (Jul 15, 6:00 AM)33% (Jul 19, 3:00 PM)29.86 "Hg (Jul 18, 6:30 PM)
Average69 °F76%30.12 "Hg
* Reported Jul 15 6:00 AM — Jul 30 6:30 AM, Santander, Weather by CustomWeather, © 2016

Note: Actual official high and low records may vary slightly from our data, if they occured in-between our weather recording intervals... More about our weather records

Advertising

Santander Weather History for the Previous 24 Hours

Scroll right to see more
 ConditionsComfort  
Time TempWeatherWind HumidityBarometerVisibility
6:30 AM
Sat, Jul 30
66 °FDrizzle. Fog.5 mph100%29.98 "Hg1 mi
6:00 AM66 °FDrizzle. Fog.5 mph100%29.98 "Hg2 mi
5:30 AM66 °FPassing clouds.7 mph100%29.98 "Hg5 mi
5:00 AM66 °FOvercast.6 mph100%29.98 "Hg4 mi
4:30 AM68 °FMostly cloudy.6 mph94%29.98 "Hg5 mi
4:00 AM68 °FOvercast.6 mph94%30.01 "Hg4 mi
3:30 AM68 °FMostly cloudy.5 mph94%30.01 "Hg5 mi
3:00 AM70 °FOvercast.No wind88%30.01 "Hg5 mi
2:30 AM70 °FOvercast.No wind88%30.01 "Hg4 mi
2:00 AM70 °FOvercast.No wind88%30.01 "Hg5 mi
1:30 AM70 °FOvercast.No wind88%30.01 "Hg5 mi
1:00 AM70 °FOvercast.No wind83%30.01 "Hg5 mi
12:30 AM70 °FPassing clouds.No wind83%30.04 "HgN/A
12:00 AM70 °FPassing clouds.1 mph83%30.04 "HgN/A
11:30 PM
Fri, Jul 29
70 °FPassing clouds.1 mph88%30.01 "HgN/A
11:00 PM70 °FPassing clouds.1 mph83%30.04 "HgN/A
10:30 PM72 °FPartly sunny.2 mph78%30.01 "HgN/A
10:00 PM70 °FPartly sunny.2 mph83%30.01 "HgN/A
9:30 PM72 °FPartly sunny.2 mph78%30.01 "HgN/A
9:00 PM72 °FPartly sunny.3 mph78%30.01 "HgN/A
8:30 PM72 °FPartly sunny.5 mph78%30.01 "HgN/A
8:00 PM72 °FPartly sunny.6 mph78%30.01 "HgN/A
7:30 PM72 °FPartly sunny.6 mph78%30.01 "HgN/A
7:00 PM72 °FPartly sunny.6 mph78%30.01 "HgN/A
6:30 PM72 °FPartly sunny.6 mph78%30.01 "HgN/A
6:00 PM72 °FPartly sunny.7 mph78%30.01 "HgN/A
5:30 PM72 °FPartly sunny.6 mph78%30.01 "HgN/A
5:00 PM72 °FPartly sunny.7 mph78%30.01 "HgN/A
4:30 PM73 °FPartly sunny.6 mph74%30.01 "HgN/A
4:00 PM73 °FPartly sunny.7 mph74%30.01 "HgN/A
3:30 PM73 °FPartly sunny.6 mph74%30.04 "HgN/A
3:00 PM75 °FPartly sunny.6 mph69%30.04 "HgN/A
2:30 PM75 °FPartly sunny.5 mph69%30.04 "HgN/A
2:00 PM73 °FPartly sunny.5 mph74%30.04 "HgN/A
1:30 PM73 °FPartly sunny.5 mph74%30.04 "HgN/A
1:00 PM73 °FPartly sunny.5 mph74%30.04 "HgN/A
12:30 PM72 °FPartly sunny.3 mph73%30.04 "HgN/A
12:00 PM72 °FScattered clouds.2 mph73%30.04 "HgN/A
11:30 AM73 °FScattered clouds.2 mph69%30.04 "HgN/A
11:00 AM72 °FScattered clouds.1 mph73%30.04 "HgN/A
10:30 AM70 °FScattered clouds.1 mph73%30.07 "HgN/A
10:00 AM70 °FScattered clouds.No wind78%30.07 "HgN/A
9:30 AM66 °FPartly sunny.No wind88%30.07 "HgN/A
9:00 AM64 °FPartly sunny.1 mph88%30.07 "HgN/A
8:30 AM63 °FScattered clouds.No wind94%30.07 "HgN/A
8:00 AM61 °FPassing clouds.No wind94%30.07 "HgN/A
7:30 AM61 °FPassing clouds.No wind94%30.07 "HgN/A
7:00 AM61 °FPassing clouds.No wind94%30.07 "HgN/A
Weather by CustomWeather, © 2016

See weather overviewHow to use our weather pages